Satellite: NO-44
Catalog number: 26931
Epoch time:      12011.78929416
Element set:    0944
Inclination:      067.0504 deg
RA of node:       165.9863 deg
Eccentricity:    0.0005351
Arg of perigee:   278.9060 deg
Mean anomaly:     081.1442 deg
Mean motion:   14.29749634 rev/day
Decay rate:       3.43e-06 rev/day^2
Epoch rev:           53674
Checksum:              317

Satellite: SO-50
Catalog number: 27607
Epoch time:      12011.51509788
Element set:     660
Inclination:      064.5593 deg
RA of node:       054.4586 deg
Eccentricity:    0.0084765
Arg of perigee:   279.0467 deg
Mean anomaly:     080.1016 deg
Mean motion:   14.72155553 rev/day
Decay rate:       8.62e-06 rev/day^2
Epoch rev:           48675
Checksum:              326

Satellite: CO-55
Catalog number: 27844
Epoch time:      12011.61819261
Element set:     285
Inclination:      098.7046 deg
RA of node:       022.2873 deg
Eccentricity:    0.0009495
Arg of perigee:   321.6650 deg
Mean anomaly:     038.3855 deg
Mean motion:   14.20944356 rev/day
Decay rate:       2.87e-06 rev/day^2
Epoch rev:           44251
Checksum:              310

Satellite: CO-57
Catalog number: 27848
Epoch time:      12011.66530627
Element set:    0234
Inclination:      098.7135 deg
RA of node:       021.6009 deg
Eccentricity:    0.0009303
Arg of perigee:   327.1736 deg
Mean anomaly:     032.8843 deg
Mean motion:   14.20706530 rev/day
Decay rate:       2.30e-06 rev/day^2
Epoch rev:           44246
Checksum:              276

Satellite: AO-51
Catalog number: 28375
Epoch time:      12011.86628282
Element set:     166
Inclination:      098.1246 deg
RA of node:       344.6561 deg
Eccentricity:    0.0083411
Arg of perigee:   156.9138 deg
Mean anomaly:     203.5821 deg
Mean motion:   14.40882338 rev/day
Decay rate:       1.98e-06 rev/day^2
Epoch rev:           39611
Checksum:              310

Satellite: CP3
Catalog number: 31129
Epoch time:      12012.48136680
Element set:      66
Inclination:      097.8864 deg
RA of node:       029.4810 deg
Eccentricity:    0.0100284
Arg of perigee:   250.2489 deg
Mean anomaly:     108.7839 deg
Mean motion:   14.52847144 rev/day
Decay rate:       6.96e-06 rev/day^2
Epoch rev:           25122
Checksum:              302

Satellite: CO-65
Catalog number: 32785
Epoch time:      12012.68744711
Element set:     201
Inclination:      097.8219 deg
RA of node:       077.3186 deg
Eccentricity:    0.0014123
Arg of perigee:   209.9445 deg
Mean anomaly:     150.0946 deg
Mean motion:   14.82609605 rev/day
Decay rate:      1.476e-05 rev/day^2
Epoch rev:           20057
Checksum:              302

Satellite: PRISM
Catalog number: 33493
Epoch time:      12012.70709943
Element set:     324
Inclination:      098.1476 deg
RA of node:       149.8690 deg
Eccentricity:    0.0020255
Arg of perigee:   084.8019 deg
Mean anomaly:     275.5507 deg
Mean motion:   14.83037572 rev/day
Decay rate:      2.917e-05 rev/day^2
Epoch rev:           16055
Checksum:              307

Satellite: SOHLA-1
Catalog number: 33496
Epoch time:      12011.85737865
Element set:    0632
Inclination:      098.0938 deg
RA of node:       124.7887 deg
Eccentricity:    0.0006535
Arg of perigee:   172.3133 deg
Mean anomaly:     187.8172 deg
Mean motion:   14.69838417 rev/day
Decay rate:       3.34e-06 rev/day^2
Epoch rev:           15913
Checksum:              328

Satellite: TISAT-1
Catalog number: 36799
Epoch time:      12012.66648805
Element set:     597
Inclination:      098.0798 deg
RA of node:       087.8196 deg
Eccentricity:    0.0014426
Arg of perigee:   323.4847 deg
Mean anomaly:     036.5372 deg
Mean motion:   14.81408843 rev/day
Decay rate:      1.794e-05 rev/day^2
Epoch rev:            8131
Checksum:              343

Satellite: STUDSAT
Catalog number: 36801
Epoch time:      12011.91963512
Element set:    0361
Inclination:      098.0849 deg
RA of node:       087.2156 deg
Eccentricity:    0.0012633
Arg of perigee:   312.3938 deg
Mean anomaly:     047.6191 deg
Mean motion:   14.82823225 rev/day
Decay rate:      4.719e-05 rev/day^2
Epoch rev:           08120
Checksum:              285

Satellite: OOREOS
Catalog number: 37224
Epoch time:      11330.25217324
Element set:    0033
Inclination:      071.9741 deg
RA of node:       041.3371 deg
Eccentricity:    0.0020052
Arg of perigee:   337.4654 deg
Mean anomaly:     022.5620 deg
Mean motion:   14.77385090 rev/day
Decay rate:      2.151e-05 rev/day^2
Epoch rev:           00594
Checksum:              243

Satellite: FO-69
Catalog number: 37227
Epoch time:      12011.43277023
Element set:    0074
Inclination:      071.9718 deg
RA of node:       300.0155 deg
Eccentricity:    0.0018854
Arg of perigee:   254.6661 deg
Mean anomaly:     105.2417 deg
Mean motion:   14.76890019 rev/day
Decay rate:       5.46e-06 rev/day^2
Epoch rev:           01280
Checksum:              284

